Weather History for KLRO - August, 2013

Change the Weather History Date:

Saturday, August 3, 2013

  Actual Average (KCHS) Record (KCHS)
Temperature  
Mean Temperature 83 °F 82 °F  
Max Temperature 89 °F 91 °F 97 °F (2006)
Min Temperature 77 °F 73 °F 60 °F (1965)
Degree Days  
Heating Degree Days 0 0  
Month to date heating degree days 0  
Since 1 June heating degree days 1  
Since 1 July heating degree days 0  
Cooling Degree Days 18 17  
Month to date cooling degree days 51  
Year to date cooling degree days 1363  
Since 1 June cooling degree days 1001  
Growing Degree Days 33 (Base 50)    
Moisture  
Dew Point 78 °F    
Average Humidity 86    
Maximum Humidity 100    
Minimum Humidity 66    
Precipitation  
Precipitation 0.00 in 0.22 in 4.60 in (1962)
Month to date precipitation 0.64  
Year to date precipitation 29.13  
Sea Level Pressure  
Sea Level Pressure 30.01 in    
Wind  
Wind Speed 2 mph (South)    
Max Wind Speed 8 mph    
Max Gust Speed -    
Visibility 9 miles    
Events Rain    
T = Trace of Precipitation, MM = Missing Value Source: NWS Daily Summary

Daily Weather History Graph

Daily Weather History Graph

Search for Another Location

Airport or City:

Trip Planner

Search our weather history database for the weather conditions in past years. The results will help you decide how hot, cold, wet, or windy it might be!

Date:

Astronomy

Aug. 03, 2013 Rise Set
Actual Time 6:34 AM EDT 8:15 PM EDT
Civil Twilight 6:07 AM EDT 8:42 PM EDT
Nautical Twilight 5:35 AM EDT 9:14 PM EDT
Astronomical Twilight 5:01 AM EDT 9:48 PM EDT
Moon 3:44 AM EDT (8/3) 5:55 PM EDT (8/3)
Length of Visible Light 14h 35m
Length of Day
13h 41m
Waning Crescent, 9% of the Moon is Illuminated
Aug 3
Waning Crescent
Aug 6
New
Aug 14
First Quarter
Aug 20
Full
Aug 28
Last Quarter

Hourly Weather History & Observations

Time (EDT) Temp. Heat Index Dew Point Humidity Pressure Visibility Wind Dir Wind Speed Gust Speed Precip Events Conditions
12:15 AM 78.8 °F - 75.2 °F 89% 30.05 in 10.0 mi South 5.8 mph - N/A   Clear
12:35 AM 80.6 °F 86.2 °F 75.2 °F 84% 30.05 in 10.0 mi South 5.8 mph - N/A   Clear
12:55 AM 78.8 °F - 75.2 °F 89% 30.05 in 10.0 mi South 5.8 mph - N/A   Clear
1:15 AM 78.8 °F - 75.2 °F 89% 30.05 in 10.0 mi Calm Calm - N/A   Clear
1:35 AM 78.8 °F - 75.2 °F 89% 30.04 in 10.0 mi Calm Calm - N/A   Clear
1:55 AM 77.0 °F - 75.2 °F 94% 30.04 in 10.0 mi Calm Calm - N/A   Clear
2:15 AM 77.0 °F - 75.2 °F 94% 30.04 in 9.0 mi Calm Calm - N/A   Clear
2:35 AM 77.0 °F - 77.0 °F 100% 30.03 in 8.0 mi Calm Calm - N/A   Clear
2:55 AM 78.8 °F - 78.8 °F 100% 30.03 in 8.0 mi Calm Calm - N/A   Clear
3:15 AM 78.8 °F - 78.8 °F 100% 30.03 in 7.0 mi Calm Calm - N/A   Clear
3:35 AM 78.8 °F - 78.8 °F 100% 30.02 in 7.0 mi Calm Calm - N/A   Clear
3:55 AM 78.8 °F - 78.8 °F 100% 30.02 in 7.0 mi Calm Calm - N/A   Clear
4:15 AM 78.8 °F - 78.8 °F 100% 30.03 in 7.0 mi Calm Calm - N/A   Clear
4:35 AM 78.8 °F - 78.8 °F 100% 30.02 in 7.0 mi Calm Calm - N/A   Clear
4:55 AM 78.8 °F - 78.8 °F 100% 30.03 in 8.0 mi Calm Calm - N/A   Clear
5:15 AM 78.8 °F - 78.8 °F 100% 30.03 in 7.0 mi Calm Calm - N/A   Clear
5:35 AM 78.8 °F - 78.8 °F 100% 30.03 in 7.0 mi Calm Calm - N/A   Clear
5:55 AM 78.8 °F - 78.8 °F 100% 30.02 in 7.0 mi Calm Calm - N/A   Clear
6:15 AM 78.8 °F - 78.8 °F 100% 30.03 in 9.0 mi Calm Calm - N/A   Clear
6:35 AM 78.8 °F - 78.8 °F 100% 30.04 in 3.0 mi Calm Calm - N/A   Clear
6:55 AM 78.8 °F - 78.8 °F 100% 30.03 in 3.0 mi Calm Calm - N/A   Clear
7:15 AM 78.8 °F - 78.8 °F 100% 30.03 in 4.0 mi Calm Calm - N/A   Clear
7:35 AM 78.8 °F - 78.8 °F 100% 30.04 in 6.0 mi Calm Calm - N/A   Clear
7:55 AM 80.6 °F 89.3 °F 80.6 °F 100% 30.03 in 6.0 mi Calm Calm - N/A   Clear
8:15 AM 78.8 °F - 78.8 °F 100% 30.04 in 7.0 mi Calm Calm - N/A   Clear
8:35 AM 80.6 °F 88.1 °F 78.8 °F 94% 30.04 in 9.0 mi Calm Calm - N/A   Clear
8:55 AM 80.6 °F 88.1 °F 78.8 °F 94% 30.04 in 5.0 mi Calm Calm - N/A   Clear
9:15 AM 82.4 °F 90.9 °F 77.0 °F 84% 30.04 in 7.0 mi Calm Calm - N/A   Partly Cloudy
9:35 AM 82.4 °F 90.9 °F 77.0 °F 84% 30.04 in 10.0 mi Calm Calm - N/A   Clear
9:55 AM 84.2 °F 92.3 °F 75.2 °F 74% 30.03 in 10.0 mi South 5.8 mph - N/A   Clear
10:15 AM 84.2 °F 92.3 °F 75.2 °F 74% 30.03 in 10.0 mi South 5.8 mph - N/A   Scattered Clouds
10:35 AM 87.8 °F 97.6 °F 75.2 °F 66% 30.04 in 10.0 mi SSW 3.5 mph - N/A   Scattered Clouds
10:55 AM 86.0 °F 95.1 °F 75.2 °F 70% 30.03 in 10.0 mi Calm Calm - N/A   Partly Cloudy
11:15 AM 87.8 °F 97.6 °F 75.2 °F 66% 30.03 in 9.0 mi SSE 3.5 mph - N/A   Partly Cloudy
11:35 AM 87.8 °F 99.7 °F 77.0 °F 70% 30.03 in 9.0 mi SE 3.5 mph - N/A   Scattered Clouds
11:55 AM 86.0 °F 95.1 °F 75.2 °F 70% 30.03 in 9.0 mi SSE 3.5 mph - N/A   Mostly Cloudy
12:15 PM 87.8 °F 99.7 °F 77.0 °F 70% 30.02 in 10.0 mi South 8.1 mph - N/A   Mostly Cloudy
12:35 PM 86.0 °F 96.9 °F 77.0 °F 74% 30.02 in 9.0 mi SE 4.6 mph - N/A   Partly Cloudy
12:55 PM 87.8 °F 99.7 °F 77.0 °F 70% 30.02 in 9.0 mi South 6.9 mph - N/A   Partly Cloudy
1:15 PM 87.8 °F 99.7 °F 77.0 °F 70% 30.02 in 9.0 mi SE 5.8 mph - N/A   Partly Cloudy
1:35 PM 87.8 °F 99.7 °F 77.0 °F 70% 30.02 in 10.0 mi SSE 6.9 mph - N/A   Clear
1:55 PM 84.2 °F 92.3 °F 75.2 °F 74% 30.01 in 9.0 mi Calm Calm - N/A   Light Drizzle
2:15 PM 82.4 °F 92.4 °F 78.8 °F 89% 30.01 in 3.0 mi Calm Calm - N/A   Light Drizzle
2:35 PM 87.8 °F 99.7 °F 77.0 °F 70% 30.00 in 9.0 mi Calm Calm - N/A   Light Drizzle
2:55 PM 87.8 °F 102.5 °F 78.8 °F 75% 29.99 in 10.0 mi South 6.9 mph - N/A   Light Drizzle
3:15 PM 87.8 °F 99.7 °F 77.0 °F 70% 29.99 in 10.0 mi SSE 5.8 mph - N/A   Light Drizzle
3:35 PM 87.8 °F 99.7 °F 77.0 °F 70% 29.98 in 10.0 mi SE 4.6 mph - N/A   Light Drizzle
3:55 PM 89.6 °F 102.2 °F 77.0 °F 66% 29.97 in 10.0 mi South 5.8 mph - N/A   Light Drizzle
4:15 PM 89.6 °F 104.7 °F 78.8 °F 70% 29.96 in 10.0 mi South 5.8 mph - N/A   Light Drizzle
4:35 PM 87.8 °F 99.7 °F 77.0 °F 70% 29.96 in 9.0 mi SSE 6.9 mph - N/A   Light Drizzle
4:55 PM 87.8 °F 99.7 °F 77.0 °F 70% 29.95 in 10.0 mi South 5.8 mph - N/A   Light Drizzle
5:15 PM 86.0 °F 95.1 °F 75.2 °F 70% 29.96 in 10.0 mi South 6.9 mph - N/A   Light Drizzle
5:35 PM 82.4 °F 90.9 °F 77.0 °F 84% 29.96 in 7.0 mi SSW 4.6 mph - N/A   Light Drizzle
5:55 PM 86.0 °F 99.3 °F 78.8 °F 79% 29.96 in 10.0 mi South 4.6 mph - N/A   Light Drizzle
6:15 PM 86.0 °F 99.3 °F 78.8 °F 79% 29.95 in 10.0 mi South 3.5 mph - N/A   Light Drizzle
6:35 PM 84.2 °F 94.1 °F 77.0 °F 79% 29.95 in 9.0 mi Calm Calm - N/A   Light Drizzle
6:55 PM 86.0 °F 101.9 °F 80.6 °F 84% 29.95 in 10.0 mi South 4.6 mph - N/A   Light Drizzle
7:15 PM 84.2 °F 96.1 °F 78.8 °F 84% 29.95 in 9.0 mi Calm Calm - N/A   Light Drizzle
7:35 PM 84.2 °F 96.1 °F 78.8 °F 84% 29.95 in 9.0 mi Calm Calm - N/A   Light Drizzle
7:55 PM 82.4 °F 92.4 °F 78.8 °F 89% 29.96 in 9.0 mi Calm Calm - N/A   Light Drizzle
8:15 PM 82.4 °F 92.4 °F 78.8 °F 89% 29.96 in 9.0 mi Calm Calm - N/A   Light Drizzle
8:35 PM 82.4 °F 92.4 °F 78.8 °F 89% 29.97 in 9.0 mi South 3.5 mph - N/A   Light Drizzle
8:55 PM 80.6 °F 88.1 °F 78.8 °F 94% 29.97 in 10.0 mi Calm Calm - N/A   Light Drizzle
9:15 PM 80.6 °F 88.1 °F 78.8 °F 94% 29.98 in 10.0 mi SSW 5.8 mph - N/A Rain Light Rain
9:35 PM 80.6 °F 88.1 °F 78.8 °F 94% 29.98 in 10.0 mi Calm Calm - N/A   Light Drizzle
9:55 PM 80.6 °F 88.1 °F 78.8 °F 94% 29.99 in 10.0 mi SW 3.5 mph - N/A   Light Drizzle
10:15 PM 80.6 °F 88.1 °F 78.8 °F 94% 29.99 in 10.0 mi Calm Calm - N/A Rain Light Rain
10:35 PM 80.6 °F 88.1 °F 78.8 °F 94% 30.00 in 10.0 mi Calm Calm - N/A   Light Drizzle
10:55 PM 80.6 °F 88.1 °F 78.8 °F 94% 30.00 in 10.0 mi Calm Calm - N/A Rain Light Rain
11:15 PM 80.6 °F 88.1 °F 78.8 °F 94% 30.00 in 10.0 mi SW 4.6 mph - N/A   Light Drizzle
11:35 PM 80.6 °F 88.1 °F 78.8 °F 94% 29.99 in 10.0 mi SW 5.8 mph - N/A Rain Light Rain
11:55 PM 80.6 °F 88.1 °F 78.8 °F 94% 29.99 in 10.0 mi Calm Calm - N/A Rain Light Rain